Pagina principale
METAR-TAF:

METAR-TAF

Aeroporti :

Alpnach, Svizzera

latitudine: 46-56-19N, longitudine: 8-17-03E, altezza: 440 m

Osservazione

Il bollettino è stato emesso 22 minuti fa, alle 13:50 UTC
Vento 7 kt da nord-est
Temperature 21°C
Umidità 69%
Pressione 1019 hPa
Visibilità 10 km o più
Poco nuvoloso ad un'altezza di 6000 ft

METAR: LSMA 271350Z 05007KT 9999 FEW060 21/15 Q1019 RMK BLU+

Ora: 16:12 (14:12 UTC)


TAF: mancante

Osservazioni e previsioni meteorologiche di più di 4000 aeroporti (messaggi METAR e TAF).

Le stazioni disponibili sono rappresentate dai dischi gialli e rossi sulla carta.

Puntare il mouse per vedere il nome della stazione.

Clicca sopra per visualizzare le osservazioni e previsioni meteorologiche.

Per cambiare la mappa : fare clic sui pulsanti verdi con una croce nera per ingrandire, il pulsante verde con un trattino per diminuire, o sulla freccia verde per le mappe adiacenti.


METAR-TAF: